{"data":{"norad_id":63742,"intl_designator":"2025-088U","name":"KUIPER-00029","alt_names":[],"object_type":"PAYLOAD","status":"ACTIVE","operator":null,"country":"US","launch_date":"2025-04-28","launch_site_code":"AFETR","launch_vehicle":null,"mission":null,"orbit_class":"UNKNOWN","rcs_meters":null,"size_class":null,"mass_kg":null,"dimensions":null,"purposes":[],"wikipedia_slug":null,"has_3d_model":false,"image_url":null,"decayed_at":null,"tle_current":{"epoch":"2026-09-21T15:28:01.826976Z","epoch_age_seconds":106286,"freshness":"FRESH","line1":"1 63742U 25088U   26264.64446559  .00000719  00000+0  12329-3 0  9994","line2":"2 63742  51.9033 305.2313 0000362 359.8953   0.2009 14.79928765 76625","mean_motion":14.79928765,"eccentricity":3.62e-5,"inclination_deg":51.9033,"raan_deg":305.2313,"arg_perigee_deg":359.8953,"mean_anomaly_deg":0.2009,"bstar":0.00012329,"rev_number":7662,"period_min":97.30198061256,"perigee_km":629.29531981931,"apogee_km":629.80267628557,"semimajor_km":7007.6859980524,"source":"CELESTRAK","updated_at":"2026-09-22T09:00:29.320716Z"}}}